Regional Weather Roundup
Issued by NWS

Home | Current Version | Previous Version | Text Only | Print | Product List | Glossary Off
Versions: 1 2 3 4 5 6 7 8 9 10 11 12 13 14 15 16 17 18 19 20 21 22 23 24 25 26 27 28 29 30 31 32 33 34 35 36 37 38 39 40 41 42 43 44 45 46 47 48 49 50

791
ASUS43 KIND 200609
RWRIN

WEATHER ROUNDUP FOR INDIANA
NATIONAL WEATHER SERVICE INDIANAPOLIS IN
200 AM EDT SUN AUG 20 2017

NOTE: "FAIR" INDICATES FEW OR NO CLOUDS BELOW 12,000 FEET WITH NO
SIGNIFICANT WEATHER AND/OR OBSTRUCTIONS TO VISIBILITY.

* - STATION DOES NOT REPORT WEATHER SUCH AS PRECIPITATION OR FOG.

+ - STATION NOT QUALITY CONTROLLED BY THE NATIONAL WEATHER SERVICE.
    USE DATA WITH CAUTION...ESPECIALLY DEWPOINT AND RELATIVE
    HUMIDITY OBSERVATIONS.

INZ001>003-010>013-019-020-200700-
NORTHWEST INDIANA

CITY           SKY/WX    TMP DP  RH WIND       PRES   REMARKS
GARY /AIRPORT/ CLEAR     59  56  90 CALM      30.02R
KNOX *+        CLEAR     55  55 100 CALM      30.02R
LA PORTE +     CLEAR     58  55  91 CALM      30.03R
6HR MIN TEMP:  57; 6HR MAX TEMP:  73;

MICHIGAN CITY+ CLEAR     55  55 100 CALM      30.02S
MONTICELLO +   CLEAR     64  63  96 CALM      30.01S
6HR MIN TEMP:  64; 6HR MAX TEMP:  80;

RENSSELAER +   CLEAR     63  55  77 E5        30.02R
VALPARAISO     CLEAR     61  58  90 CALM      30.03R
6HR MIN TEMP:  61; 6HR MAX TEMP:  76;


$$

LMZ046-743>745-200700-
SOUTHERN LAKE MICHIGAN

STATION/POSITION TIME  TEMP    WIND        PRES    WAVE
                       AIR SEA DIR/SP/G            HT
                 (UTC) (F)     (DEG/KT/KT) (MB)    (FT)
BURNS HARBOR     0502   73     150/  3/  7 1016.3
MICHIGAN CITY    0540   67     130/  8/  9   N/A
5NW MICH CITY    0600   70 75  140/  8/  8   N/A     1

$$

INZ004-005-014>016-021>024-200700-
NORTH CENTRAL INDIANA

CITY           SKY/WX    TMP DP  RH WIND       PRES   REMARKS
GOSHEN         CLEAR     60  56  86 CALM      30.03R
6HR MIN TEMP:  60; 6HR MAX TEMP:  77;

LOGANSPORT +   CLEAR     61  59  94 CALM      30.03S
PERU/GRISSOM   CLEAR     66  61  85 E5        30.02R
6HR MIN TEMP:  64; 6HR MAX TEMP:  78;

ROCHESTER +    CLEAR     63  61  94 CALM      30.04R
SOUTH BEND     CLEAR     59  58  96 CALM      30.04R
6HR MIN TEMP:  59; 6HR MAX TEMP:  75;

WARSAW +       CLEAR     59  59 100 CALM      30.04R FOG

$$

INZ006>009-017-018-025>027-200700-
NORTHEAST INDIANA

CITY           SKY/WX    TMP DP  RH WIND       PRES   REMARKS
AUBURN +       CLEAR     63  59  88 CALM      30.04S FOG
FORT WAYNE     CLEAR     63  60  90 CALM      30.03S
6HR MIN TEMP:  61; 6HR MAX TEMP:  76;

HUNTINGTON +   CLEAR     62  61  96 CALM      30.03S
6HR MIN TEMP:  62; 6HR MAX TEMP:  75;


$$

INZ028-029-035-036-043>045-051>053-200700-
WEST CENTRAL INDIANA

CITY           SKY/WX    TMP DP  RH WIND       PRES   REMARKS
GREENCASTLE +  CLEAR     66  63  88 CALM      30.02S
LAFAYETTE      CLEAR     65  63  93 CALM      30.00S
6HR MIN TEMP:  65; 6HR MAX TEMP:  79;

TERRE HAUTE    CLEAR     67  64  90 CALM      30.00S
6HR MIN TEMP:  66; 6HR MAX TEMP:  81;


$$

INZ030>032-037>040-046>048-054>057-064-065-200700-
CENTRAL INDIANA

CITY           SKY/WX    TMP DP  RH WIND       PRES   REMARKS
CP ATTERBURY + CLEAR     68  64  88 CALM      30.02R
FRANKFORT +    MOCLDY    66  64  93 SE3       30.04R
6HR MIN TEMP:  65; 6HR MAX TEMP:  79;

GREENWOOD *+   PTCLDY    70  62  74 E3        30.03S
INDIANAPOLIS   PTCLDY    73  60  63 E6        30.01S
6HR MIN TEMP:  73; 6HR MAX TEMP:  83;

-EAGLE CREEK   CLEAR     72  60  66 E3        30.02R
6HR MIN TEMP:  71; 6HR MAX TEMP:  82;

KOKOMO +       CLEAR     65  61  87 CALM      30.04R
6HR MIN TEMP:  63; 6HR MAX TEMP:  78;

MARION +       CLEAR     63  61  94 CALM      30.04S
MT COMFORT *+  CLEAR     63  61  94 CALM      30.03S
SHELBYVILLE    CLEAR     68  63  84 E7        30.01S
6HR MIN TEMP:  68; 6HR MAX TEMP:  80;

ZIONSVILLE +   CLEAR     63  61  95 CALM      30.04R
6HR MIN TEMP:  63; 6HR MAX TEMP:  74;


$$

INZ033-034-041-042-049-050-058-059-200700-
EAST CENTRAL INDIANA

CITY           SKY/WX    TMP DP  RH WIND       PRES   REMARKS
MUNCIE         PTCLDY    64  61  90 SE3       30.03S
6HR MIN TEMP:  64; 6HR MAX TEMP:  78;

RICHMOND +     MOCLDY    64  63  94 E3        30.06S

$$

INZ060-061-067>069-081>083-085>088-200700-
SOUTHWEST INDIANA

CITY           SKY/WX    TMP DP  RH WIND       PRES   REMARKS
EVANSVILLE     CLEAR     71  68  90 CALM      30.00S
6HR MIN TEMP:  71; 6HR MAX TEMP:  85;

HUNTINGBURG +  CLEAR     70  68  93 SE3       30.01S
6HR MIN TEMP:  69; 6HR MAX TEMP:  83;

WASHINGTON +   CLEAR     70  68  93 MISG      29.99S
6HR MIN TEMP:  70; 6HR MAX TEMP:  82;


$$

INZ062-063-066-070>080-084-089>092-200700-
SOUTH CENTRAL AND SOUTHEAST INDIANA

CITY           SKY/WX    TMP DP  RH WIND       PRES   REMARKS
BEDFORD +      PTCLDY    70  66  88 S3        30.00S
BLOOMINGTON    PTCLDY    70  66  87 CALM      30.01R
6HR MIN TEMP:  68; 6HR MAX TEMP:  82;

MADISON *+     CLEAR     68  66  94 NE3       30.04S
NORTH VERNON + PTCLDY    68  66  94 CALM      30.02R
SEYMOUR +      PTCLDY    70  68  94 CALM      30.01R

$$





USA.gov is the U.S. government's official web portal to all federal, state and local government web resources and services.